Grand Forks AFB, ND

11:25 AM CST on December 08, 2016 (GMT -0600)
Grand Forks Air Force Base

Weather History for KRDR - August, 2013

Change the Weather History Date:

Tuesday, August 13, 2013

  Actual Average Record
Temperature  
Mean Temperature 58 °F -  
Max Temperature 74 °F 77 °F 93 °F (2015)
Min Temperature 43 °F 54 °F 42 °F (1997)
Degree Days  
Heating Degree Days 6    
Growing Degree Days 8 (Base 50)    
Moisture  
Dew Point 45 °F    
Average Humidity 65    
Maximum Humidity 93    
Minimum Humidity 29    
Precipitation  
Precipitation 10.41 in - - ()
Sea Level Pressure  
Sea Level Pressure 30.22 in    
Wind  
Wind Speed 5 mph (North)    
Max Wind Speed 10 mph    
Max Gust Speed -    
Visibility 10 miles    
Events      
Averages and records for this station are not official NWS values.
T = Trace of Precipitation, MM = Missing Value Source: NWS Daily Summary

Daily Weather History Graph

Daily Weather History Graph

Search for Another Location

Airport or City:

Trip Planner

Search our weather history database for the weather conditions in past years. The results will help you decide how hot, cold, wet, or windy it might be!

Date:

Astronomy

Aug. 13, 2013 Rise Set
Actual Time 6:22 AM CDT 8:45 PM CDT
Civil Twilight 5:47 AM CDT 9:19 PM CDT
Nautical Twilight 5:04 AM CDT 10:02 PM CDT
Astronomical Twilight 4:14 AM CDT 10:51 PM CDT
Moon 1:54 PM CDT (8/13) 11:44 PM CDT (8/13)
Length of Visible Light 15h 32m
Length of Day
14h 23m
Waxing Crescent, 42% of the Moon is Illuminated
Aug 13
Waxing Crescent
Aug 14
First Quarter
Aug 20
Full
Aug 28
Last Quarter
Sep 5
New

Hourly Weather History & Observations

Time (CDT) Temp. Windchill Dew Point Humidity Pressure Visibility Wind Dir Wind Speed Gust Speed Precip Events Conditions
12:58 AM 48.4 °F - 44.1 °F 85% 30.21 in 10.0 mi NNW 4.6 mph - N/A   Clear
1:58 AM 47.1 °F - 43.3 °F 87% 30.22 in 10.0 mi NW 4.6 mph - N/A   Clear
2:58 AM 46.6 °F - 43.2 °F 88% 30.22 in 10.0 mi NW 3.5 mph - N/A   Clear
3:58 AM 46.0 °F 44.8 °F 43.3 °F 90% 30.22 in 10.0 mi NW 3.5 mph - N/A   Clear
4:58 AM 46.4 °F 44.3 °F 43.3 °F 89% 30.22 in 10.0 mi NNW 4.6 mph - N/A   Clear
5:58 AM 43.9 °F 40.5 °F 42.1 °F 93% 30.22 in 10.0 mi NNW 5.8 mph - N/A   Clear
6:58 AM 44.4 °F 41.2 °F 42.6 °F 93% 30.24 in 10.0 mi NW 5.8 mph - N/A   Clear
7:58 AM 53.1 °F - 48.0 °F 83% 30.26 in 10.0 mi North 5.8 mph - N/A   Clear
8:58 AM 57.7 °F - 48.9 °F 72% 30.26 in 10.0 mi North 10.4 mph - 10.41 in   Clear
9:28 AM 60.8 °F - 48.2 °F 63% 30.25 in 10.0 mi North 5.8 mph - N/A   Clear
9:33 AM 60.8 °F - 48.2 °F 63% 30.25 in 10.0 mi Variable 5.8 mph - N/A   Clear
9:58 AM 61.5 °F - 49.8 °F 65% 30.27 in 10.0 mi NNW 5.8 mph - -   Clear
10:58 AM 66.4 °F - 49.8 °F 55% 30.27 in 10.0 mi North 5.8 mph - -   Clear
11:58 AM 69.4 °F - 46.4 °F 44% 30.26 in 10.0 mi NE 9.2 mph - -   Clear
12:58 PM 71.1 °F - 44.4 °F 38% 30.26 in 10.0 mi Variable 4.6 mph - -   Clear
1:58 PM 72.3 °F - 42.1 °F 34% 30.25 in 10.0 mi NE 8.1 mph - -   Clear
2:58 PM 73.8 °F - 41.0 °F 31% 30.23 in 10.0 mi NNE 6.9 mph - -   Clear
3:58 PM 74.1 °F - 40.1 °F 29% 30.22 in 10.0 mi North 5.8 mph - -   Clear
4:58 PM 73.2 °F - 40.1 °F 30% 30.21 in 10.0 mi NNE 5.8 mph - -   Clear
5:58 PM 73.8 °F - 41.5 °F 31% 30.20 in 10.0 mi North 9.2 mph - -   Clear
6:58 PM 72.1 °F - 43.0 °F 35% 30.20 in 10.0 mi North 4.6 mph - -   Clear
7:58 PM 69.6 °F - 44.2 °F 40% 30.19 in 10.0 mi NE 5.8 mph - -   Clear
8:58 PM 59.5 °F - 48.6 °F 67% 30.19 in 10.0 mi NNE 2.3 mph - -   Clear
9:33 PM 57.2 °F - 46.4 °F 67% 30.18 in 8.0 mi Calm Calm - N/A   Clear
9:43 PM 55.4 °F - 48.2 °F 77% 30.18 in 10.0 mi Calm Calm - N/A   Clear
9:58 PM 52.5 °F - 46.6 °F 80% 30.20 in 10.0 mi Calm Calm - -   Clear
10:08 PM 53.6 °F - 46.4 °F 77% 30.18 in 9.0 mi NE 1.2 mph - N/A   Clear
10:13 PM 51.8 °F - 46.4 °F 82% 30.18 in 9.0 mi Calm Calm - N/A   Clear
10:58 PM 51.3 °F - 46.4 °F 83% 30.20 in 10.0 mi NNW 1.2 mph - -   Partly Cloudy
11:58 PM 47.8 °F - 44.8 °F 89% 30.19 in 10.0 mi West 3.5 mph - -   Clear